Flag for Belarus Weather past 2 weeks in Gomel, Belarus

Now
36 °F

Light rain. Fog.


Feels Like: 28 °F
Forecast: 30 / 40 °F
Wind: 10 mph from South

Location: Gomel'

Current Time: Mar 3, 2015 at 10:34:48 AM

Latest Report: Mar 3, 2015 at 10:00 AM


Visibility: 2 mi

Pressure: 29.77 "Hg

Humidity: 100%

Dew point: 36 °F

Location of GomelLocation

Historic Weather in Gomel — Graph

°F

Gomel temperature yesterday

Maximum temperature yesterday: 39 °F (at 12:00 PM)
Minimum temperature yesterday: 36 °F (at 12:00 AM)
Average temperature yesterday: 37 °F

Past Weeks' High & Low Weather Summary

 TemperatureHumidityPressure
High46 °F (Feb 24, 3:30 PM)100% (Feb 19, 12:00 PM)30.83 "Hg (Feb 19, 12:00 PM)
Low7 °F (Feb 17, 8:00 AM)40% (Feb 17, 4:00 PM)29.74 "Hg (Mar 3, 5:30 AM)
Average33 °F84%30.14 "Hg
* Reported Feb 16 9:00 AM — Mar 3 9:30 AM, Gomel, Weather by CustomWeather, © 2015

Note: Actual official high and low records may vary slightly from our data, if they occured in-between our weather recording intervals... More about our weather records

Advertising

Gomel weather history for previous 24 hours

 ConditionsComfort  
Time TempWeatherWind HumidityBarometerVisibility
9:30 AM
Tue, Mar 3
37 °FLight rain. Fog.13 mph100%29.74 "Hg2 mi
9:00 AM37 °FLight rain. Fog.13 mph100%29.74 "Hg1 mi
8:30 AM37 °FLight rain. Fog.15 mph100%29.74 "Hg2 mi
8:00 AM37 °FLight rain. Fog.10 mph100%29.74 "Hg3 mi
7:30 AM37 °FLight rain. Fog.15 mph93%29.74 "Hg3 mi
7:00 AM37 °FLight rain. Fog.13 mph93%29.74 "Hg3 mi
6:30 AM37 °FLight rain. Low clouds.15 mph93%29.74 "Hg4 mi
6:00 AM37 °FLight rain. Low clouds.15 mph93%29.74 "Hg4 mi
5:30 AM37 °FLight rain. Low clouds.15 mph93%29.74 "Hg5 mi
5:00 AM37 °FLight rain. Low clouds.15 mph93%29.77 "Hg4 mi
4:00 AM36 °FDrizzle. Low clouds.13 mph100%29.77 "Hg4 mi
3:00 AM36 °FDrizzle. Low clouds.15 mph100%29.77 "Hg4 mi
2:00 AM36 °FDrizzle. Fog.15 mph100%29.80 "Hg3 mi
1:00 AM36 °FDrizzle. Fog.13 mph100%29.80 "Hg2 mi
12:00 AM37 °FDrizzle. Fog.15 mph100%29.80 "Hg2 mi
11:00 PM
Mon, Mar 2
37 °FLight rain. Low clouds.15 mph100%29.80 "Hg4 mi
10:00 PM37 °FLight rain. Low clouds.10 mph93%29.80 "Hg4 mi
9:00 PM37 °FLight rain. Low clouds.10 mph93%29.80 "Hg4 mi
8:00 PM37 °FLight rain. Low clouds.13 mph93%29.80 "Hg6 mi
7:30 PM36 °FLow clouds.13 mph93%29.80 "HgN/A
7:00 PM36 °FLight rain. Low clouds.13 mph93%29.80 "HgN/A
6:30 PM37 °FLight rain. Low clouds.15 mph93%29.80 "HgN/A
6:00 PM37 °FDrizzle. Low clouds.15 mph93%29.80 "HgN/A
5:30 PM37 °FLow clouds.15 mph87%29.80 "HgN/A
5:00 PM37 °FLow clouds.15 mph87%29.80 "HgN/A
4:30 PM37 °FLow clouds.15 mph87%29.83 "HgN/A
4:00 PM37 °FDrizzle. Low clouds.15 mph87%29.83 "HgN/A
3:30 PM37 °FDrizzle. Low clouds.15 mph87%29.83 "HgN/A
3:00 PM37 °FDrizzle. Low clouds.17 mph87%29.83 "HgN/A
2:30 PM37 °FSprinkles. Mostly cloudy.15 mph75%29.83 "HgN/A
2:00 PM37 °FMostly cloudy.15 mph75%29.83 "HgN/A
1:30 PM37 °FSprinkles. Overcast.20 mph75%29.86 "HgN/A
1:00 PM37 °FSprinkles. Overcast.20 mph75%29.86 "HgN/A
12:30 PM39 °FSprinkles. Overcast.20 mph70%29.86 "HgN/A
12:00 PM39 °FSprinkles. Overcast.20 mph70%29.86 "HgN/A
11:30 AM37 °FPartly sunny.20 mph75%29.86 "HgN/A
11:00 AM37 °FPartly sunny.20 mph75%29.86 "HgN/A
10:30 AM37 °FPartly sunny.15 mph81%29.86 "HgN/A
10:00 AM37 °FOvercast.13 mph81%29.86 "HgN/A
Weather by CustomWeather, © 2015

See weather overviewHow to use our weather pages